FW4251 Weather Reports


Display with metric or nautical units.
time (UTC)temp
F
wind
direction
speed
MPH
gust
MPH
rain 1hr
in
rain 24hr
in
rain mn
in
humidity
%
barometer
mb
20260831040011 69 326 0.0 0.0 0.00 0.00 0.00 79 1019.0
20260831035508 70 326 0.0 0.0 0.00 0.00 0.00 78 1018.9
20260831035012 70 326 0.0 0.0 0.00 0.00 0.00 78 1018.9
20260831034508 70 326 0.0 0.0 0.00 0.00 0.00 77 1019.0
20260831034008 70 326 0.0 0.0 0.00 0.00 0.00 77 1018.9
20260831033511 70 326 0.0 0.0 0.00 0.00 0.00 76 1018.9
20260831033008 70 326 0.0 0.0 0.00 0.00 0.00 76 1018.9
20260831032509 71 326 0.0 2.0 0.00 0.00 0.00 76 1019.0
20260831032008 71 326 0.0 3.0 0.00 0.00 0.00 75 1018.9
20260831031508 71 326 0.0 3.0 0.00 0.00 0.00 75 1018.9
20260831031007 71 326 0.0 0.0 0.00 0.00 0.00 74 1019.0
20260831030507 71 326 0.0 0.0 0.00 0.00 0.00 74 1019.0
20260831030007 72 326 0.0 0.0 0.00 0.00 0.00 74 1019.1
20260831025507 72 326 0.0 0.0 0.00 0.00 0.00 74 1019.2
20260831025007 72 326 0.0 2.0 0.00 0.00 0.00 74 1019.3
20260831024511 72 326 0.0 5.0 0.00 0.00 0.00 73 1019.3
20260831024007 72 326 1.0 6.0 0.00 0.00 0.00 73 1019.2
20260831023507 72 315 3.0 6.0 0.00 0.00 0.00 73 1019.3
20260831023008 72 324 2.0 5.0 0.00 0.00 0.00 73 1019.3
20260831022506 72 322 1.0 6.0 0.00 0.00 0.00 73 1019.2
20260831022006 72 323 1.0 6.0 0.00 0.00 0.00 73 1019.0
20260831021506 72 302 1.0 5.0 0.00 0.00 0.00 73 1019.1
20260831021005 72 320 1.0 6.0 0.00 0.00 0.00 73 1019.1
20260831020505 72 307 3.0 6.0 0.00 0.00 0.00 72 1019.1
20260831020006 72 329 0.0 5.0 0.00 0.00 0.00 73 1019.1
20260831015504 72 319 1.0 10.0 0.00 0.00 0.00 73 1019.1
20260831015004 72 284 3.0 10.0 0.00 0.00 0.00 72 1019.2
20260831014506 73 311 3.0 6.0 0.00 0.00 0.00 72 1019.1
20260831014004 73 323 2.0 6.0 0.00 0.00 0.00 72 1019.0
20260831013504 73 348 2.0 6.0 0.00 0.00 0.00 73 1019.0
20260831013004 73 336 1.0 5.0 0.00 0.00 0.00 73 1018.9
20260831012504 73 336 2.0 9.0 0.00 0.00 0.00 73 1018.9
20260831012005 73 335 4.0 9.0 0.00 0.00 0.00 73 1018.9
20260831011512 73 302 3.0 8.0 0.00 0.00 0.00 73 1018.8
20260831011003 72 336 3.0 9.0 0.00 0.00 0.00 74 1018.8
20260831010504 72 315 3.0 9.0 0.00 0.00 0.00 74 1018.7
20260831010007 72 319 2.0 5.0 0.00 0.00 0.00 75 1018.5
20260831005503 72 323 1.0 5.0 0.00 0.00 0.00 75 1018.5
20260831005004 72 323 2.0 6.0 0.00 0.00 0.00 75 1018.5
20260831004503 72 316 3.0 8.0 0.00 0.00 0.00 76 1018.3
20260831004005 72 299 2.0 5.0 0.00 0.00 0.00 77 1018.2
20260831003503 72 297 2.0 5.0 0.00 0.00 0.00 79 1018.2
20260831003002 72 296 1.0 4.0 0.00 0.00 0.00 80 1018.0
20260831002503 71 296 2.0 4.0 0.00 0.00 0.00 80 1017.9
20260831002004 71 295 1.0 5.0 0.00 0.00 0.00 81 1017.9
20260831001507 71 295 0.0 5.0 0.00 0.00 0.00 82 1017.7
20260831001002 72 255 2.0 5.0 0.00 0.00 0.00 84 1017.8
20260831000502 72 239 1.0 2.0 0.00 0.00 0.00 85 1017.8
20260831000001 72 239 0.0 1.0 0.00 0.00 0.00 86 1017.6
20260830235503 72 239 0.0 3.0 0.00 0.00 0.00 87 1017.7
20260830235002 72 239 0.0 3.0 0.00 0.00 0.00 86 1017.6
20260830234501 72 239 1.0 3.0 0.00 0.00 0.00 87 1017.5
20260830234002 72 239 0.0 0.0 0.00 0.00 0.00 87 1017.6
20260830233501 72 239 0.0 2.0 0.00 0.00 0.00 87 1017.8
20260830233001 73 239 0.0 3.0 0.00 0.00 0.00 87 1017.8
20260830232601 73 239 0.0 3.0 0.00 0.00 0.00 86 1017.7
20260830232101 73 186 1.0 2.0 0.00 0.00 0.00 86 1017.7
20260830231609 73 186 0.0 0.0 0.00 0.00 0.00 86 1017.6
20260830231059 73 186 0.0 1.0 0.00 0.00 0.00 86 1017.5
20260830230559 73 186 0.0 2.0 0.00 0.00 0.00 86 1017.4
20260830230059 73 186 1.0 6.0 0.00 0.00 0.00 86 1017.4
20260830225559 73 186 0.0 6.0 0.00 0.00 0.00 86 1017.4
20260830225102 73 186 1.0 10.0 0.00 0.00 0.00 86 1017.4
20260830224608 73 199 4.0 10.0 0.00 0.00 0.00 86 1017.6
20260830224059 73 192 3.0 6.0 0.00 0.00 0.00 86 1017.4
20260830223559 73 183 3.0 7.0 0.00 0.00 0.00 85 1017.5
20260830223059 73 212 2.0 6.0 0.00 0.00 0.00 85 1017.4
20260830222601 73 212 3.0 6.0 0.00 0.00 0.00 85 1017.3
20260830222057 73 190 2.0 5.0 0.00 0.00 0.00 85 1017.4
20260830221557 74 185 2.0 6.0 0.00 0.00 0.00 84 1017.4
20260830221057 74 211 2.0 6.0 0.00 0.00 0.00 84 1017.4
20260830220558 74 184 3.0 8.0 0.00 0.00 0.00 83 1017.4
20260830220057 74 202 3.0 8.0 0.00 0.00 0.00 83 1017.4
20260830215557 74 190 2.0 6.0 0.00 0.00 0.00 82 1017.2
20260830215057 74 193 2.0 5.0 0.00 0.00 0.00 82 1017.3
20260830214558 74 160 1.0 6.0 0.00 0.00 0.00 82 1017.3
20260830214056 74 180 1.0 6.0 0.00 0.00 0.00 82 1017.2
20260830213555 74 192 2.0 7.0 0.00 0.00 0.00 81 1017.1
20260830213055 75 198 2.0 7.0 0.00 0.00 0.00 81 1017.0
20260830212555 75 199 2.0 7.0 0.00 0.00 0.00 81 1017.1
20260830212054 75 169 3.0 7.0 0.00 0.00 0.00 80 1017.1
20260830211555 75 174 1.0 6.0 0.00 0.00 0.00 80 1017.2
20260830211053 75 200 2.0 6.0 0.00 0.00 0.00 80 1017.3
20260830210553 75 188 2.0 9.0 0.00 0.00 0.00 80 1017.2
20260830210100 75 201 3.0 9.0 0.00 0.00 0.00 79 1017.3
20260830205551 76 178 2.0 6.0 0.00 0.00 0.00 79 1017.4
20260830205051 76 209 2.0 5.0 0.00 0.00 0.00 79 1017.4
20260830204557 76 183 2.0 8.0 0.00 0.00 0.00 78 1017.4
20260830204052 76 178 2.0 8.0 0.00 0.00 0.00 77 1017.4
20260830203552 76 211 3.0 8.0 0.00 0.00 0.00 77 1017.4
20260830203051 77 205 2.0 7.0 0.00 0.00 0.00 77 1017.4
20260830202551 77 184 2.0 5.0 0.00 0.00 0.00 76 1017.5
20260830202049 77 199 3.0 7.0 0.00 0.00 0.00 76 1017.6
20260830201554 77 209 2.0 8.0 0.00 0.00 0.00 76 1017.5
20260830201049 77 192 4.0 9.0 0.00 0.00 0.00 75 1017.5
20260830200548 77 200 4.0 9.0 0.00 0.00 0.00 75 1017.6
20260830200104 77 190 3.0 9.0 0.00 0.00 0.00 75 1017.6
20260830195548 77 153 4.0 9.0 0.00 0.00 0.00 75 1017.6
20260830195048 77 152 3.0 10.0 0.00 0.00 0.00 75 1017.6
20260830194556 77 165 2.0 9.0 0.00 0.00 0.00 75 1017.7
20260830194046 77 147 4.0 9.0 0.00 0.00 0.00 75 1017.9
20260830193547 77 194 2.0 6.0 0.00 0.00 0.00 76 1017.9
20260830193046 77 174 2.0 7.0 0.00 0.00 0.00 74 1018.0
20260830192544 77 192 2.0 7.0 0.00 0.00 0.00 74 1017.9
20260830192044 77 190 2.0 8.0 0.00 0.00 0.00 74 1017.9
20260830191543 77 165 3.0 9.0 0.00 0.00 0.00 74 1018.0
20260830191042 77 165 2.0 7.0 0.00 0.00 0.00 74 1018.2
20260830190542 77 188 2.0 7.0 0.00 0.00 0.00 73 1018.3
20260830190042 77 161 4.0 7.0 0.00 0.00 0.00 72 1018.3
20260830185542 77 157 3.0 6.0 0.00 0.00 0.00 73 1018.2
20260830185041 77 180 2.0 4.0 0.00 0.00 0.00 72 1018.4
20260830184541 78 157 1.0 7.0 0.00 0.00 0.00 71 1018.4
20260830184041 78 182 1.0 7.0 0.00 0.00 0.00 72 1018.7
20260830183538 78 188 3.0 7.0 0.00 0.00 0.00 70 1018.7
20260830183038 78 182 3.0 7.0 0.00 0.00 0.00 70 1018.7
20260830182538 78 212 3.0 8.0 0.00 0.00 0.00 71 1018.7
20260830182037 78 227 1.0 8.0 0.00 0.00 0.00 72 1018.6
20260830181537 78 207 2.0 8.0 0.00 0.00 0.00 70 1018.6
20260830181042 78 183 4.0 8.0 0.00 0.00 0.00 70 1018.7
20260830180534 78 267 3.0 7.0 0.00 0.00 0.00 70 1018.8
20260830180035 77 223 3.0 8.0 0.00 0.00 0.00 71 1018.8
20260830175535 77 180 1.0 8.0 0.00 0.00 0.00 71 1018.8
20260830175033 77 183 4.0 9.0 0.00 0.00 0.00 70 1018.8
20260830174536 77 160 3.0 9.0 0.00 0.00 0.00 70 1018.7
20260830174032 77 210 3.0 8.0 0.00 0.00 0.00 70 1018.9
20260830173533 77 177 2.0 6.0 0.00 0.00 0.00 70 1019.1
20260830173045 77 175 2.0 6.0 0.00 0.00 0.00 69 1019.1
20260830172531 77 212 4.0 6.0 0.00 0.00 0.00 70 1019.0
20260830172032 77 229 1.0 7.0 0.00 0.00 0.00 70 1019.1
20260830171529 77 265 4.0 9.0 0.00 0.00 0.00 69 1019.1
20260830171028 77 237 4.0 12.0 0.00 0.00 0.00 68 1019.1
20260830170528 76 231 2.0 12.0 0.00 0.00 0.00 69 1019.2
20260830170026 76 195 2.0 8.0 0.00 0.00 0.00 72 1019.2
20260830165525 76 192 1.0 7.0 0.00 0.00 0.00 72 1019.3
20260830165029 76 165 1.0 6.0 0.00 0.00 0.00 72 1019.3
20260830164522 75 162 3.0 6.0 0.00 0.00 0.00 72 1019.2
20260830164021 75 186 1.0 6.0 0.00 0.00 0.00 72 1019.4
20260830163520 75 194 2.0 7.0 0.00 0.00 0.00 72 1019.4
20260830163023 75 194 2.0 6.0 0.00 0.00 0.00 71 1019.4
20260830162517 75 207 3.0 8.0 0.00 0.00 0.00 71 1019.5
20260830162015 74 154 5.0 8.0 0.00 0.00 0.00 70 1019.7
20260830161519 74 163 1.0 8.0 0.00 0.00 0.00 71 1019.8
20260830161014 74 162 2.0 8.0 0.00 0.00 0.00 70 1019.9
20260830160514 74 198 3.0 8.0 0.00 0.00 0.00 68 1019.9
20260830160018 74 165 2.0 8.0 0.00 0.00 0.00 69 1020.0
20260830155513 74 147 2.0 6.0 0.00 0.00 0.00 69 1020.1
20260830155015 74 190 2.0 10.0 0.00 0.00 0.00 69 1020.1
20260830154513 74 162 5.0 10.0 0.00 0.00 0.00 68 1020.2
20260830154010 74 207 3.0 11.0 0.00 0.00 0.00 70 1020.2
20260830153508 74 176 6.0 11.0 0.00 0.00 0.00 69 1020.2
20260830153107 73 192 3.0 10.0 0.00 0.00 0.00 70 1020.3
20260830152511 73 176 5.0 10.0 0.00 0.00 0.00 70 1020.4
20260830152006 73 154 5.0 10.0 0.00 0.00 0.00 70 1020.4
20260830151506 73 232 4.0 10.0 0.00 0.00 0.00 69 1020.5
20260830151006 73 190 5.0 10.0 0.00 0.00 0.00 70 1020.5
20260830150505 73 152 2.0 8.0 0.00 0.00 0.00 71 1020.5
20260830150005 73 232 3.0 8.0 0.00 0.00 0.00 71 1020.5
20260830145505 73 191 2.0 9.0 0.00 0.00 0.00 70 1020.5
20260830145005 73 169 2.0 10.0 0.00 0.00 0.00 71 1020.5
20260830144505 73 236 2.0 10.0 0.00 0.00 0.00 70 1020.5
20260830144006 73 218 4.0 10.0 0.00 0.00 0.00 69 1020.6
20260830143503 73 172 4.0 9.0 0.00 0.00 0.00 71 1020.6
20260830143003 73 153 4.0 11.0 0.00 0.00 0.00 70 1020.7
20260830142503 73 145 3.0 11.0 0.00 0.00 0.00 71 1020.7
20260830142101 72 140 3.0 11.0 0.00 0.00 0.00 71 1020.7
20260830141601 72 166 6.0 11.0 0.00 0.00 0.00 70 1020.7
20260830141057 71 236 3.0 8.0 0.00 0.00 0.00 74 1020.7
20260830140556 70 190 3.0 8.0 0.00 0.00 0.00 76 1020.6
20260830140058 70 207 2.0 8.0 0.00 0.00 0.00 77 1020.8
20260830135554 69 186 2.0 7.0 0.00 0.00 0.00 77 1020.8
20260830135053 69 154 2.0 6.0 0.00 0.00 0.00 80 1020.7
20260830134554 68 190 3.0 7.0 0.00 0.00 0.00 79 1020.7
20260830134051 68 242 3.0 6.0 0.00 0.00 0.00 80 1020.7
20260830133548 67 171 2.0 7.0 0.00 0.00 0.00 81 1020.7
20260830133048 67 239 2.0 7.0 0.00 0.00 0.00 80 1020.9
20260830132547 67 238 2.0 8.0 0.00 0.00 0.00 81 1021.0
20260830132045 66 190 4.0 8.0 0.00 0.00 0.00 81 1021.1
20260830131600 66 209 3.0 8.0 0.00 0.00 0.00 82 1021.0
20260830131043 65 176 3.0 8.0 0.00 0.00 0.00 83 1021.1
20260830130542 64 204 2.0 8.0 0.00 0.00 0.00 84 1021.2
20260830130044 64 250 3.0 7.0 0.00 0.00 0.00 85 1021.2
20260830125538 64 145 2.0 7.0 0.00 0.00 0.00 86 1021.2
20260830125037 63 234 3.0 7.0 0.00 0.00 0.00 86 1021.3
20260830124536 63 153 3.0 7.0 0.00 0.00 0.00 86 1021.4
20260830124038 62 192 1.0 8.0 0.00 0.00 0.00 86 1021.4
20260830123534 62 177 3.0 8.0 0.00 0.00 0.00 86 1021.6
20260830123033 62 156 2.0 6.0 0.00 0.00 0.00 86 1021.6
20260830122534 62 202 2.0 8.0 0.00 0.00 0.00 87 1021.6
20260830122031 62 241 4.0 8.0 0.00 0.00 0.00 87 1021.8
20260830121530 61 225 3.0 9.0 0.00 0.00 0.00 87 1021.8
20260830121030 61 232 5.0 9.0 0.00 0.00 0.00 87 1021.8
20260830120532 61 188 3.0 7.0 0.00 0.00 0.00 88 1021.9
20260830120028 61 194 2.0 8.0 0.00 0.00 0.00 88 1021.7
20260830115527 61 196 3.0 8.0 0.00 0.00 0.00 88 1021.7
20260830115027 61 192 3.0 8.0 0.00 0.00 0.00 88 1021.6
20260830114526 61 217 2.0 6.0 0.00 0.00 0.00 89 1021.7
20260830114027 60 224 3.0 6.0 0.00 0.00 0.00 89 1021.7
20260830113529 60 201 2.0 8.0 0.00 0.00 0.00 89 1021.8
20260830113027 60 188 3.0 9.0 0.00 0.00 0.00 89 1021.7
20260830112524 60 148 2.0 9.0 0.00 0.00 0.00 89 1021.8
20260830112024 59 198 3.0 9.0 0.00 0.00 0.00 89 1021.8
20260830111526 59 161 4.0 8.0 0.00 0.00 0.00 89 1021.8
20260830111023 59 163 3.0 9.0 0.00 0.00 0.00 89 1021.7
20260830110522 59 196 4.0 9.0 0.00 0.00 0.00 89 1021.8
20260830110022 59 186 3.0 8.0 0.00 0.00 0.00 89 1021.9
20260830105520 59 212 3.0 7.0 0.00 0.00 0.00 89 1021.9
20260830105020 59 184 2.0 5.0 0.00 0.00 0.00 89 1021.7
20260830104520 59 180 1.0 5.0 0.00 0.00 0.00 89 1021.8
20260830104021 59 180 1.0 4.0 0.00 0.00 0.00 88 1021.7
20260830103520 59 180 2.0 4.0 0.00 0.00 0.00 88 1021.7
20260830103019 59 179 2.0 4.0 0.00 0.00 0.00 88 1021.8
20260830102519 59 219 2.0 5.0 0.00 0.00 0.00 89 1021.8
20260830102018 59 225 2.0 5.0 0.00 0.00 0.00 88 1021.8
20260830101520 59 227 2.0 5.0 0.00 0.00 0.00 89 1021.8
20260830101019 59 214 2.0 6.0 0.00 0.00 0.00 89 1021.8
20260830100518 59 209 2.0 6.0 0.00 0.00 0.00 89 1021.8
20260830100018 59 206 1.0 5.0 0.00 0.00 0.00 89 1021.8
20260830095518 59 213 2.0 5.0 0.00 0.00 0.00 89 1021.7
20260830095018 59 225 1.0 5.0 0.00 0.00 0.00 89 1021.8
20260830094517 59 174 3.0 5.0 0.00 0.00 0.00 89 1021.7
20260830094017 59 174 1.0 3.0 0.00 0.00 0.00 89 1021.6
20260830093519 59 174 0.0 3.0 0.00 0.00 0.00 89 1021.7
20260830093015 59 174 0.0 3.0 0.00 0.00 0.00 89 1021.8
20260830092515 59 174 1.0 3.0 0.00 0.00 0.00 89 1021.7
20260830092015 59 174 1.0 3.0 0.00 0.00 0.00 89 1021.8
20260830091534 59 173 1.0 5.0 0.00 0.00 0.00 89 1021.9
20260830091016 59 169 3.0 5.0 0.00 0.00 0.00 89 1021.9
20260830090517 59 198 2.0 5.0 0.00 0.00 0.00 89 1022.0
20260830090014 59 200 2.0 7.0 0.00 0.00 0.00 89 1021.9
20260830085513 59 195 2.0 7.0 0.00 0.00 0.00 89 1022.0
20260830085013 59 185 3.0 6.0 0.00 0.00 0.00 89 1022.0
20260830084513 59 177 1.0 4.0 0.00 0.00 0.00 88 1021.9
20260830084013 59 221 1.0 7.0 0.00 0.00 0.00 88 1022.1
20260830083513 59 207 2.0 4.0 0.00 0.00 0.00 88 1022.1
20260830083014 59 238 1.0 6.0 0.00 0.00 0.00 88 1022.2
20260830082513 59 213 2.0 6.0 0.00 0.00 0.00 88 1022.2
20260830082011 59 232 3.0 7.0 0.00 0.00 0.00 88 1022.3
20260830081516 59 207 2.0 3.0 0.00 0.00 0.00 88 1022.2
20260830081011 59 210 1.0 4.0 0.00 0.00 0.00 88 1022.2
20260830080511 59 210 1.0 5.0 0.00 0.00 0.00 88 1022.2
20260830080011 59 209 2.0 5.0 0.00 0.00 0.00 88 1022.1
20260830075511 59 206 2.0 5.0 0.00 0.00 0.00 88 1022.2
20260830075010 59 199 3.0 5.0 0.00 0.00 0.00 88 1022.1
20260830074521 59 194 2.0 5.0 0.00 0.00 0.00 88 1022.1
20260830074013 59 198 1.0 4.0 0.00 0.00 0.00 88 1022.0
20260830073511 59 215 1.0 6.0 0.00 0.00 0.00 88 1022.1
20260830073010 59 213 2.0 6.0 0.00 0.00 0.00 88 1022.1
20260830072510 59 223 2.0 5.0 0.00 0.00 0.00 88 1022.2
20260830072009 59 226 2.0 4.0 0.00 0.00 0.00 88 1022.0
20260830071509 59 230 1.0 3.0 0.00 0.00 0.00 88 1022.0
20260830071008 59 234 0.0 6.0 0.00 0.00 0.00 88 1022.0
20260830070510 58 238 2.0 7.0 0.00 0.00 0.00 88 1021.9
20260830070007 58 195 4.0 7.0 0.00 0.00 0.00 88 1021.9
20260830065507 58 197 2.0 6.0 0.00 0.00 0.00 88 1021.8
20260830065006 58 213 2.0 5.0 0.00 0.00 0.00 88 1021.9
20260830064506 58 195 2.0 5.0 0.00 0.00 0.00 88 1022.0
20260830064007 58 192 2.0 6.0 0.00 0.00 0.00 88 1022.0
20260830063508 58 196 2.0 6.0 0.00 0.00 0.00 88 1022.0
20260830063007 58 187 1.0 3.0 0.00 0.00 0.00 88 1022.0
20260830062505 59 187 1.0 4.0 0.00 0.00 0.00 87 1022.1
20260830062003 59 187 2.0 5.0 0.00 0.00 0.00 87 1022.2
20260830061503 59 200 2.0 5.0 0.00 0.00 0.00 87 1022.5
20260830061003 59 210 2.0 4.0 0.00 0.00 0.00 87 1022.4
20260830060502 59 218 2.0 4.0 0.00 0.00 0.00 87 1022.4
20260830060004 59 182 0.0 5.0 0.00 0.00 0.00 87 1022.3
20260830055502 59 182 1.0 5.0 0.00 0.00 0.00 88 1022.2
20260830055002 59 185 2.0 8.0 0.00 0.00 0.00 88 1022.4
20260830054502 59 215 2.0 8.0 0.00 0.00 0.00 88 1022.5
20260830054001 59 198 3.0 7.0 0.00 0.00 0.00 88 1022.5
20260830053600 59 164 4.0 7.0 0.00 0.00 0.00 88 1022.5
20260830053100 59 195 2.0 7.0 0.00 0.00 0.00 88 1022.4
20260830052559 59 207 3.0 7.0 0.00 0.00 0.00 88 1022.2
20260830052058 59 194 3.0 6.0 0.00 0.00 0.00 88 1021.9
20260830051558 59 184 2.0 6.0 0.00 0.00 0.00 87 1022.0
20260830051057 59 202 2.0 6.0 0.00 0.00 0.00 87 1022.0
20260830050557 59 204 2.0 6.0 0.00 0.00 0.00 87 1022.1
20260830050055 59 192 3.0 6.0 0.00 0.00 0.00 87 1022.1
20260830045555 59 185 3.0 6.0 0.00 0.00 0.00 87 1022.0
20260830045054 59 196 1.0 6.0 0.00 0.00 0.00 87 1022.1
20260830044611 60 191 0.0 3.0 0.00 0.00 0.00 87 1022.2
20260830044054 60 191 1.0 3.0 0.00 0.00 0.00 87 1022.2
20260830043553 60 191 0.0 3.0 0.00 0.00 0.00 86 1022.2
20260830043053 60 191 1.0 3.0 0.00 0.00 0.00 86 1022.3
20260830042552 60 191 1.0 3.0 0.00 0.00 0.00 86 1022.2
20260830042051 60 191 1.0 4.0 0.00 0.00 0.00 86 1022.2
20260830041613 60 191 1.0 4.0 0.00 0.00 0.00 86 1022.1
20260830041052 60 191 0.0 3.0 0.00 0.00 0.00 86 1022.2
20260830040548 60 191 1.0 5.0 0.00 0.00 0.00 86 1022.1